Regional Weather Roundup
Issued by NWS

Home | Current Version | Previous Version | Text Only | Print | Product List | Glossary On
Versions: 1 2 3 4 5 6 7 8 9 10 11 12 13 14 15 16 17 18 19 20 21 22 23 24 25 26 27 28 29 30 31 32 33 34 35 36 37 38 39 40 41 42 43 44 45 46 47 48 49 50
000
ASUS43 KDMX 280601
RWRIA

WEATHER ROUNDUP FOR IOWA
NATIONAL WEATHER SERVICE DES MOINES IA
100 AM CDT WED JUN 28 2017

NOTE: "FAIR" INDICATES FEW OR NO CLOUDS BELOW 12,000 FEET WITH NO
SIGNIFICANT WEATHER AND/OR OBSTRUCTIONS TO VISIBILITY.

* - THESE STATIONS ARE NOT NWS STATIONS...THUS NOT UNDER NWS
QUALITY CONTROL.  THEY ALSO DO NOT REPORT WEATHER SUCH
AS PRECIPITATION OR FOG.

IAZ001>003-012>014-020>022-031>034-043>046-280700-
   NORTHWEST IOWA

CITY           SKY/WX    TMP DP  RH WIND       PRES   REMARKS
CARROLL *      CLOUDY    72  64  78 S21G31    29.73F
CHEROKEE *     RAIN      72  64  75 S15G26    29.66F
DENISON *      MOCLDY    72  64  78 S23G36    29.71F
LE MARS *      CLOUDY    75  64  69 S26G33    29.62F
ORANGE CITY *  DRIZZLE   72  64  78 S13G25    29.64F
SHELDON *      CLOUDY    70  64  83 SE18G24   29.63F
SIOUX CITY     CLOUDY    74  66  76 S20G36    29.63F
6HR MIN TEMP:  74; 6HR MAX TEMP:  79;

SPENCER        TSTM      70  63  78 S22G30    29.70S
6HR MIN TEMP:  70; 6HR MAX TEMP:  79; 6HR PCP:  0.01;

STORM LAKE *   CLOUDY    70  63  78 S21G29    29.70F
$$

IAZ055>058-069>071-079>083-090>094-280700-
   SOUTHWEST IOWA

CITY           SKY/WX    TMP DP  RH WIND       PRES   REMARKS
ATLANTIC *     CLOUDY    72  64  78 S16G25    29.76F
AUDUBON *      CLOUDY    70  64  83 S15G23    29.76F
CLARINDA *     CLOUDY    73  66  78 S15G25    29.82F
COUNCIL BLFS * CLOUDY    72  68  88 S18G25    29.74F
CRESTON *      CLOUDY    72  64  78 S16G22    29.83F
HARLAN  *      MOCLDY    72  64  78 S20G26    29.77F
LAMONI         CLOUDY    70  63  78 S12G18    29.85F
6HR MIN TEMP:  70; 6HR MAX TEMP:  76;

RED OAK *      CLOUDY    72  66  83 S17G25    29.78F
SHENANDOAH *   PTCLDY    73  66  78 S16       29.78F
$$

IAZ047>049-059>061-072>074-084-280700-
   CENTRAL IOWA

CITY           SKY/WX    TMP DP  RH WIND       PRES   REMARKS
AMES           PTCLDY    68  58  70 S14G21    29.80F
6HR MIN TEMP:  68; 6HR MAX TEMP:  76;

ANKENY *       CLEAR     68  57  68 S13       29.81F
BOONE *        CLOUDY    70  57  64 S13G21    29.79F
CHARITON *     PTCLDY    70  59  68 S16       29.84F
DES MOINES     MOCLDY    70  59  68 SE13      29.81F
6HR MIN TEMP:  70; 6HR MAX TEMP:  79;

GRINNELL*      PTCLDY    66  52  61 SE15G22   29.86F
KNOXVILLE *    MOCLDY    68  55  64 S14G20    29.82F
MARSHALLTOWN   CLOUDY    66  53  63 SE14      29.82F
6HR MIN TEMP:  66; 6HR MAX TEMP:  75;

NEWTON *       CLOUDY    68  54  60 SE15G21   29.83F
PELLA *        CLOUDY    68  54  60 SE9       29.85F
PERRY *          N/A     71  59  66 S16G22    29.78F
$$

IAZ004>006-015-016-023>025-035-036-280700-
   NORTH CENTRAL IOWA

CITY           SKY/WX    TMP DP  RH WIND       PRES   REMARKS
ALGONA *       CLOUDY    70  57  64 S23G33    29.73F
CLARION *        N/A     68  55  64 S18       29.78F
ESTHERVILLE    CLOUDY    70  60  70 S22G35    29.70F
6HR MIN TEMP:  67; 6HR MAX TEMP:  74;

FORT DODGE *   MOCLDY    72  57  60 S15G25    29.77R
MASON CITY     CLOUDY    64  50  60 SE16      29.80F
6HR MIN TEMP:  63; 6HR MAX TEMP:  73;

FOREST CITY *  MOCLDY    68  43  40 SE15G22   29.77F
WEBSTER CITY * PTCLDY    68  55  64 SE16G23   29.75F
IOWA FALLS *     N/A     67  53  59 SE14G21   29.80F
$$

IAZ007>011-017>019-026>030-037>042-050>054-066-280700-
   NORTHEAST IOWA

CITY           SKY/WX    TMP DP  RH WIND       PRES   REMARKS
CEDAR RAPIDS   MOCLDY    65  51  60 S10       29.90F
6HR MIN TEMP:  63; 6HR MAX TEMP:  74;

CHARLES CITY * CLOUDY    66  48  52 SE17G23   29.84F
CLINTON *      CLEAR     60  51  72 SE7       29.99F
DECORAH *      CLOUDY    63  48  59 S10G18    29.87F
DUBUQUE        MOCLDY    61  48  62 S13       29.97F
6HR MIN TEMP:  59; 6HR MAX TEMP:  71;

MONTICELLO *   PTCLDY    61  50  67 SE8       29.94F
OELWEIN *      CLOUDY    63  50  63 SE15      29.88F
WATERLOO       CLOUDY    67  49  52 SE16G24   29.85F
6HR MIN TEMP:  64; 6HR MAX TEMP:  73;

$$

IAZ064-065-067-068-078-280700-
   EAST CENTRAL IOWA

CITY           SKY/WX    TMP DP  RH WIND       PRES   REMARKS
IOWA CITY      PTCLDY    62  52  69 SE7       29.94F
6HR MIN TEMP:  61; 6HR MAX TEMP:  76;

MT. PLEASANT * MOCLDY    65  51  59 S12       29.95F
MUSCATINE *    PTCLDY    61  54  77 S6        29.96F
QUAD CITIES    PTCLDY    59  50  72 SE5       29.98F
6HR MIN TEMP:  58; 6HR MAX TEMP:  75;

$$

IAZ062-063-075>077-085>089-095>099-280700-
   SOUTHEAST IOWA

CITY           SKY/WX    TMP DP  RH WIND       PRES   REMARKS
BURLINGTON     PTCLDY    68  53  58 S13       29.97F
6HR MIN TEMP:  63; 6HR MAX TEMP:  75;

FAIRFIELD *    CLOUDY    68  52  56 SE13      29.92F
FORT MADISON * MOCLDY    66  54  63 S10G16    29.98F
KEOKUK *       MOCLDY    68  54  60 SE8       29.96F
OSKALOOSA *      N/A     66  53  63 SE14      29.88F
OTTUMWA        PTCLDY    68  53  58 S13       29.89F
6HR MIN TEMP:  68; 6HR MAX TEMP:  77;

WASHINGTON *   CLOUDY    64  52  63 S9        29.94F
$$

ABBREVIATIONS USED IN REMARKS
   TC - TEMPERATURES IN CELSIUS
  WCI - WIND CHILL INDEX
   HX - HEAT INDEX
  VSB - VISIBILITY
$$




USA.gov is the U.S. government's official web portal to all federal, state and local government web resources and services.